Location: Ferma
(41.9500°N, 44.5167°E)
Time: 20:38:49
(UTC+00:00)

FENGYUN 1C DEB - Pass Details

Date: 19 August 2022
Orbit: 606 x 930 km, 99.7° (Epoch: 01 October)

Event Time Altitude Azimuth Distance (km) Brightness Sun altitude
Exits shadow 16:46:33 11° 107° (ESE) 2,283 ? -9.4°
Maximum altitude 16:50:14 23° 60° (ENE) 1,733 ? -10.0°
Drops below altitude 10° 16:54:30 10° 11° (N) 2,539 ? -10.7°
Sets 16:57:26 0° 357° (N) 3,523 ? -11.2°
